Location: Girdwood
(60.9430°N, 149.1660°W)
Time: 06:01:39
(UTC-08:00)

Iridium 86 - Visible Passes

Search period start: 29 July 2016 00:00
Search period end: 08 August 2016 00:00
Orbit: 776 x 779 km, 86.4° (Epoch: 28 July)

Date Brightness Start Highest point End Pass type
(mag) Time Alt. Az. Time Alt. Az. Time Alt. Az.
29 Jul 5.6 01:12:03 10° N 01:17:19 87° E 01:22:01 13° S visible
29 Jul 7.2 02:53:25 10° NNW 02:57:30 23° WNW 03:01:33 10° SW visible
30 Jul 5.8 00:38:31 10° N 00:43:42 59° ENE 00:48:31 12° SSE visible
30 Jul 6.7 02:19:34 10° NNW 02:24:15 34° W 02:28:53 10° SW visible
31 Jul 6.4 00:05:01 10° N 00:09:59 40° ENE 00:14:54 10° SE visible
31 Jul 6.1 01:45:50 10° NNW 01:50:54 50° W 01:55:30 12° SSW visible
31 Jul 7.8 03:28:11 10° NW 03:30:28 13° WNW 03:32:45 10° W visible
31 Jul 6.8 23:31:38 10° N 23:36:09 28° ENE 23:40:38 10° SE visible
01 Aug 5.7 01:12:11 10° N 01:17:26 75° W 01:22:02 14° S visible
01 Aug 7.5 02:53:49 10° NNW 02:57:23 19° WNW 03:00:56 10° WSW visible
02 Aug 5.6 00:38:37 10° N 00:43:53 75° E 00:48:33 13° SSE visible
02 Aug 7.1 02:19:51 10° NNW 02:24:11 27° WNW 02:28:31 10° SW visible
03 Aug 6.0 00:05:06 10° N 00:10:13 51° ENE 00:15:05 11° SSE visible
03 Aug 6.5 01:46:03 10° NNW 01:50:54 39° W 01:55:33 11° SSW visible
03 Aug 8.1 03:29:50 10° NW 03:30:16 10° WNW 03:30:42 10° WNW visible
03 Aug 6.5 23:31:39 10° N 23:36:27 35° ENE 23:41:13 10° SE visible
04 Aug 5.9 01:12:21 10° N 01:17:30 59° W 01:22:06 13° SSW visible
04 Aug 7.8 02:54:21 10° NNW 02:57:14 15° WNW 03:00:07 10° W visible
05 Aug 5.6 00:38:44 10° N 00:44:00 87° W 00:48:38 13° S visible
05 Aug 7.4 02:20:11 10° NNW 02:24:06 22° WNW 02:28:00 10° WSW visible
06 Aug 5.7 00:05:11 10° N 00:10:25 64° E 00:15:11 12° SSE visible
06 Aug 6.9 01:46:18 10° NNW 01:50:52 31° W 01:55:25 10° SW visible
06 Aug 6.2 23:31:41 10° N 23:36:42 43° ENE 23:41:41 10° SE visible
07 Aug 6.3 01:12:32 10° NNW 01:17:31 46° W 01:22:13 11° SSW visible
07 Aug 7.9 02:55:10 10° NW 02:57:02 12° WNW 02:58:55 10° W visible
